Powrót do katalogu

SL-16 DEB

AktywnyLEO
NORAD 18411·DEBRIS·🇷🇺 Russia

Wystrzelony May 13, 1987 z Baikonur Cosmodrome

Loading…

Następne Przeloty (najbliższe 24 godziny)

TLE

ŚwieżeSource: Space-Track

Epoka: Sep 14, 2026, 10:53 UTC

1 18411U 87041D   26257.45364676  .00000033  00000-0  67125-4 0  9999
2 18411  71.0284 257.4771 0186106  82.9841  67.3324 13.76497441974524

Śledź SL-16 DEB w czasie rzeczywistym z AllMySat

Download on the App Store